Starlink 6076

operational
NORAD ID: 56100 Int'l Des: 2023-046 Owner: SPXS Country: US Constellation: starlink
LEOCIRCULAR

Über Starlink 6076

Beschreibung wird geladen...

Live-Position

3D-Globus wird geladen...

Nächste Überflüge

Höhenverlauf

Altitude vs Time

uPlot chart will show altitude changes over time

Zweizeiliger Elementsatz

1 56100U 23046H 25354.06633948 .00001261 00000-0 10845-3 0 9996
2 56100 43.0044 231.6838 0001188 274.7915 85.2792 15.02522940150080
Epoch: 20. Dez. 2025 • Age: 11 hours

Aktueller Status

Höhe 568.0 km
Geschwindigkeit 7.58 km/s
Subsatellitenpunkt -33.92°S, 93.73°W
Startdatum 29. März 2023
Alter 2.7 years
Typ internet

Technische Details

Klassifizierung Payload
Masse 305.00 kg
Trockenmasse 290.00 kg
Gesamtmasse 305.00 kg
Länge 0.20 m
Durchmesser 2.80 m
Spannweite 9.00 m
Form Box + pan
Hersteller SPXS
Bus-Typ Starlink
Phasenstatus In Orbit
Besitzer/Staat SPXS/US

Große Konstellationen

Loading constellations...